Powrót do katalogu

STARLINK-30226

AktywnyŁącznośćVLEO
NORAD 57497·PAYLOAD·🇺🇸 United States

Wystrzelony Aug 7, 2023 z Cape Canaveral Space Force Station

Loading…

Następne Przeloty (najbliższe 24 godziny)

TLE

ŚwieżeSource: CelesTrak SupGP

Epoka: Sep 15, 2026, 03:22 UTC

1 57497C 23113C   26258.14076389 -.00035755  00000+0 -12948-2 0  2583
2 57497  43.0018  26.2313 0001735 262.0228 272.7970 15.27601660    14

Śledź STARLINK-30226 w czasie rzeczywistym z AllMySat

Download on the App Store